When you browse on this site, cookies collect data to enhance your experience and personalize the content and advertising you see.
Visit our Privacy Policy to learn more. By continuing to use the site, you agree to this use of cookies and data.
  • In Hungary
  • List of Countries
  • For 7 days
  • Water Temperature
  • Satellite Maps
  • Weather Map
  • News
  • Weather Widgets
  • user-avatar
    Login

    Hourly Weather Butterworth

    Today, 17 November, Saturday

    Time Temperature Precipitation Wind Pressure Humidity
    00:00 +27°C° 1.3 mm 1 mps 752 mmHg 88%
    01:00 +27°C° 0 mm 2 mps 752 mmHg 89%
    02:00 +27°C° 1.2 mm 2 mps 752 mmHg 89%
    03:00 +27°C° 1.2 mm 1 mps 752 mmHg 90%
    04:00 +26°C° 1.2 mm 1 mps 752 mmHg 90%
    05:00 +27°C° 0.4 mm 1 mps 752 mmHg 89%
    06:00 +27°C° 0.4 mm 1 mps 752 mmHg 88%
    07:00 +28°C° 0 mm 1 mps 753 mmHg 85%
    08:00 +29°C° 0.1 mm 1 mps 753 mmHg 79%
    09:00 +31°C° 0.1 mm 1 mps 753 mmHg 72%
    10:00 +32°C° 0.1 mm 1 mps 753 mmHg 66%
    11:00 +33°C° 0 mm 1 mps 752 mmHg 63%
    12:00 +34°C° 0 mm 2 mps 752 mmHg 61%
    13:00 +35°C° 0 mm 2 mps 751 mmHg 58%
    14:00 +35°C° 0 mm 2 mps 751 mmHg 61%
    15:00 +34°C° 0 mm 3 mps 751 mmHg 63%
    16:00 +34°C° 0 mm 3 mps 750 mmHg 66%
    17:00 +31°C° 0 mm 2 mps 750 mmHg 72%
    18:00 +30°C° 0 mm 2 mps 751 mmHg 77%
    19:00 +29°C° 0 mm 2 mps 751 mmHg 83%
    20:00 +28°C° 0 mm 1 mps 752 mmHg 84%
    21:00 +28°C° 0 mm 1 mps 752 mmHg 85%
    22:00 +28°C° 0 mm 1 mps 753 mmHg 86%
    23:00 +28°C° 0.4 mm 1 mps 753 mmHg 87%

    Tomorrow, 18 November, Sunday

    Time Temperature Precipitation Wind Pressure Humidity
    00:00 +27°C° 0.4 mm 2 mps 753 mmHg 88%
    01:00 +27°C° 0.4 mm 2 mps 753 mmHg 88%
    02:00 +27°C° 0.3 mm 2 mps 752 mmHg 89%
    03:00 +27°C° 0.3 mm 2 mps 752 mmHg 89%
    04:00 +27°C° 0.3 mm 2 mps 752 mmHg 89%
    05:00 +27°C° 0.2 mm 2 mps 752 mmHg 89%
    06:00 +27°C° 0.2 mm 2 mps 752 mmHg 89%
    07:00 +27°C° 0.2 mm 2 mps 753 mmHg 88%
    08:00 +29°C° 0 mm 1 mps 753 mmHg 79%
    09:00 +31°C° 0 mm 1 mps 753 mmHg 71%
    10:00 +33°C° 0 mm 1 mps 754 mmHg 62%
    11:00 +33°C° 0 mm 1 mps 753 mmHg 61%
    12:00 +34°C° 0 mm 1 mps 753 mmHg 60%
    13:00 +35°C° 0 mm 2 mps 753 mmHg 60%
    14:00 +34°C° 0.1 mm 2 mps 752 mmHg 63%
    15:00 +32°C° 0.1 mm 2 mps 751 mmHg 66%
    16:00 +32°C° 0.1 mm 2 mps 751 mmHg 69%
    17:00 +31°C° 0 mm 2 mps 751 mmHg 72%
    18:00 +30°C° 0 mm 1 mps 752 mmHg 76%
    19:00 +29°C° 0 mm 1 mps 752 mmHg 79%
    20:00 +29°C° 0.2 mm 1 mps 753 mmHg 80%
    21:00 +29°C° 0.2 mm 2 mps 753 mmHg 82%
    22:00 +28°C° 0.2 mm 2 mps 754 mmHg 83%
    23:00 +28°C° 0.6 mm 1 mps 754 mmHg 85%

    Day after tomorrow, 19 November, Monday

    Time Temperature Precipitation Wind Pressure Humidity
    00:00 +28°C° 0.6 mm 1 mps 754 mmHg 86%
    01:00 +27°C° 0.6 mm 1 mps 753 mmHg 87%
    02:00 +27°C° 0.6 mm 1 mps 753 mmHg 88%
    03:00 +27°C° 0.6 mm 1 mps 753 mmHg 88%
    04:00 +27°C° 0.6 mm 1 mps 752 mmHg 88%
    05:00 +27°C° 0.1 mm 1 mps 753 mmHg 88%
    06:00 +27°C° 0.1 mm 1 mps 753 mmHg 87%
    07:00 +27°C° 0.1 mm 1 mps 753 mmHg 87%
    08:00 +29°C° 0 mm 1 mps 754 mmHg 79%
    09:00 +31°C° 0 mm 1 mps 754 mmHg 70%
    10:00 +32°C° 0 mm 1 mps 755 mmHg 62%
    11:00 +32°C° 0 mm 1 mps 754 mmHg 61%
    12:00 +34°C° 0 mm 2 mps 753 mmHg 60%
    13:00 +34°C° 0 mm 2 mps 753 mmHg 60%
    14:00 +32°C° 0 mm 2 mps 752 mmHg 62%
    15:00 +32°C° 0 mm 2 mps 752 mmHg 64%
    16:00 +33°C° 0 mm 3 mps 751 mmHg 66%
    17:00 +31°C° 0 mm 2 mps 752 mmHg 70%
    18:00 +30°C° 0 mm 2 mps 752 mmHg 74%
    19:00 +29°C° 0 mm 2 mps 753 mmHg 77%
    20:00 +28°C° 0 mm 2 mps 754 mmHg 78%
    21:00 +28°C° 0 mm 2 mps 754 mmHg 79%
    22:00 +28°C° 0 mm 2 mps 755 mmHg 80%
    23:00 +28°C° 1 mm 2 mps 754 mmHg 81%

    20 November, Tuesday

    Time Temperature Precipitation Wind Pressure Humidity
    00:00 +28°C° 1 mm 2 mps 754 mmHg 83%
    01:00 +27°C° 1 mm 2 mps 754 mmHg 84%
    02:00 +27°C° 1.3 mm 2 mps 753 mmHg 86%
    03:00 +27°C° 1.3 mm 2 mps 753 mmHg 87%
    04:00 +26°C° 1.3 mm 2 mps 753 mmHg 88%
    05:00 +27°C° 1 mm 2 mps 753 mmHg 88%
    06:00 +27°C° 1 mm 2 mps 753 mmHg 87%
    07:00 +27°C° 1 mm 2 mps 754 mmHg 87%
    08:00 +29°C° 0.2 mm 2 mps 754 mmHg 79%
    09:00 +30°C° 0.2 mm 3 mps 754 mmHg 71%
    10:00 +33°C° 0.2 mm 3 mps 755 mmHg 63%
    11:00 +33°C° 0.3 mm 3 mps 754 mmHg 62%
    12:00 +33°C° 0.3 mm 4 mps 753 mmHg 62%
    13:00 +34°C° 0.3 mm 4 mps 753 mmHg 62%
    14:00 +33°C° 1.4 mm 4 mps 752 mmHg 66%
    15:00 +32°C° 1.4 mm 5 mps 752 mmHg 71%
    16:00 +30°C° 1.4 mm 5 mps 751 mmHg 76%
    17:00 +29°C° 1.1 mm 5 mps 752 mmHg 80%
    18:00 +28°C° 1.1 mm 5 mps 752 mmHg 84%
    19:00 +27°C° 1.1 mm 5 mps 753 mmHg 88%
    20:00 +27°C° 1.5 mm 5 mps 753 mmHg 89%
    21:00 +27°C° 1.5 mm 5 mps 754 mmHg 89%
    22:00 +27°C° 1.5 mm 4 mps 754 mmHg 89%
    23:00 +27°C° 1.4 mm 4 mps 754 mmHg 89%

    21 November, Wednesday

    Time Temperature Precipitation Wind Pressure Humidity
    00:00 +26°C° 1.4 mm 4 mps 754 mmHg 90%
    01:00 +26°C° 1.4 mm 4 mps 753 mmHg 90%
    02:00 +26°C° 1.9 mm 4 mps 753 mmHg 90%
    03:00 +26°C° 1.9 mm 4 mps 753 mmHg 90%
    04:00 +26°C° 1.9 mm 4 mps 752 mmHg 90%
    05:00 +26°C° 1.6 mm 3 mps 753 mmHg 90%
    06:00 +26°C° 1.6 mm 3 mps 753 mmHg 90%
    07:00 +26°C° 1.6 mm 3 mps 754 mmHg 90%
    08:00 +27°C° 1.9 mm 3 mps 754 mmHg 86%
    09:00 +28°C° 1.9 mm 3 mps 754 mmHg 82%
    10:00 +29°C° 1.9 mm 3 mps 754 mmHg 78%
    11:00 +29°C° 1.7 mm 4 mps 754 mmHg 79%
    12:00 +29°C° 1.7 mm 4 mps 753 mmHg 80%
    13:00 +29°C° 1.7 mm 4 mps 752 mmHg 81%
    14:00 +29°C° 1.8 mm 4 mps 752 mmHg 82%
    15:00 +29°C° 1.8 mm 4 mps 751 mmHg 83%
    16:00 +28°C° 1.8 mm 4 mps 751 mmHg 84%
    17:00 +28°C° 1.5 mm 4 mps 751 mmHg 86%
    18:00 +27°C° 1.5 mm 4 mps 752 mmHg 88%
    19:00 +26°C° 1.5 mm 4 mps 752 mmHg 90%
    20:00 +26°C° 1.7 mm 3 mps 753 mmHg 91%
    21:00 +26°C° 1.7 mm 3 mps 753 mmHg 91%
    22:00 +26°C° 1.7 mm 3 mps 754 mmHg 91%
    23:00 +26°C° 2.3 mm 3 mps 753 mmHg 92%

    22 November, Thursday

    Time Temperature Precipitation Wind Pressure Humidity
    00:00 +26°C° 2.3 mm 2 mps 753 mmHg 92%
    01:00 +25°C° 2.3 mm 2 mps 752 mmHg 93%
    02:00 +25°C° 1.7 mm 2 mps 752 mmHg 93%
    03:00 +25°C° 1.7 mm 2 mps 752 mmHg 93%
    04:00 +25°C° 1.7 mm 2 mps 751 mmHg 93%
    05:00 +25°C° 0.8 mm 2 mps 752 mmHg 92%
    06:00 +26°C° 0.8 mm 2 mps 752 mmHg 92%
    07:00 +26°C° 0.8 mm 3 mps 753 mmHg 91%
    08:00 +27°C° 0.6 mm 3 mps 753 mmHg 88%
    09:00 +28°C° 0.6 mm 3 mps 754 mmHg 85%
    10:00 +29°C° 0.6 mm 3 mps 754 mmHg 82%
    11:00 +29°C° 1.1 mm 3 mps 753 mmHg 82%
    12:00 +29°C° 1.1 mm 4 mps 753 mmHg 83%
    13:00 +29°C° 1.1 mm 4 mps 752 mmHg 83%
    14:00 +29°C° 1 mm 4 mps 751 mmHg 84%
    15:00 +28°C° 1 mm 4 mps 751 mmHg 86%
    16:00 +28°C° 1 mm 4 mps 751 mmHg 87%
    17:00 +27°C° 1.2 mm 3 mps 751 mmHg 89%
    18:00 +27°C° 1.2 mm 3 mps 752 mmHg 90%
    19:00 +26°C° 1.2 mm 2 mps 752 mmHg 92%
    20:00 +26°C° 2.3 mm 2 mps 753 mmHg 92%
    21:00 +26°C° 2.3 mm 2 mps 753 mmHg 92%
    22:00 +26°C° 2.3 mm 2 mps 754 mmHg 92%
    23:00 +26°C° 0.3 mm 1 mps 753 mmHg 92%
    Show more